Regional Weather Roundup
Issued by NWS

Home | Current Version | Previous Version | Text Only | Print | Product List | Glossary Off
Versions: 1 2 3 4 5 6 7 8 9 10 11 12 13 14 15 16 17 18 19 20 21 22 23 24 25 26 27 28 29 30 31 32 33 34 35 36 37 38 39 40 41 42 43 44 45 46 47 48 49 50

959
ASUS45 KBOU 222007
RWRCO

WEATHER ROUNDUP FOR COLORADO
NATIONAL WEATHER SERVICE DENVER/BOULDER CO
200 PM MDT FRI JUL 22 2016

NOTE: "FAIR" INDICATES FEW OR NO CLOUDS BELOW 12000 FEET WITH NO
SIGNIFICANT WEATHER AND/OR OBSTRUCTIONS TO VISIBILITY.

COZ001>005-013-030-031-222100-
...NORTHWEST COLORADO...

CITY           SKY/WX    TMP DP  RH WIND       PRES   REMARKS
CRAIG          FAIR      90  39  16 NW9       30.30F
HAYDEN         FAIR      84  45  24 W7        30.33F
MEEKER         FAIR      84  48  28 VRB5      30.31F
MOUNT WERNER   NOT AVBL
STEAMBOAT SPGS FAIR      83  47  28 W6        30.36F
WALDEN         FAIR      73  39  29 S3        30.46F
$$

COZ006>008-011-222100-
...WEST CENTRAL VALLEYS...

CITY           SKY/WX    TMP DP  RH WIND       PRES   REMARKS
GRAND JUNCTION FAIR      89  51  27 S10       30.20F
MONTROSE       FAIR      87  50  27 VRB3      30.29F
EAGLE          SUNNY     86  45  23 SW17G24   30.35F
RIFLE          FAIR      89  51  27 SE10      30.25F
DELTA          FAIR      90  48  24 S7        30.25F
NUCLA          FAIR      90  46  22 CALM      30.34F
$$

COZ017>023-064>068-222100-
...SOUTHWEST COLORADO...

CITY           SKY/WX    TMP DP  RH WIND       PRES   REMARKS
DURANGO        FAIR      85  46  25 NW10      30.36F
CORTEZ         FAIR      91  51  25 S10       30.30F
PAGOSA SPRINGS FAIR      84  39  20 W5G17     30.45F
TELLURIDE      LGT RAIN  64  53  65 SE9       30.61F
WOLF CREEK PAS FAIR      61  41  48 S15G26    30.82F
$$

COZ009-010-012-014-032>034-037-058>063-222100-
...CENTRAL COLORADO...

CITY           SKY/WX    TMP DP  RH WIND       PRES   REMARKS
ASPEN          FAIR      82  45  27 NW8       30.44F
BUENA VISTA    FAIR      78  40  25 NW7       30.44F
COPPER MTN     FAIR      61  37  41 W14       30.80F
BERTHOUD PASS  FAIR      54  41  62 NE7G28    30.83F
COTTONWOOD PAS FAIR      73  45  35 CALM      30.62F
GUNNISON       FAIR      75  45  33 N26G35    30.47F THUNDER
KREMMLING      FAIR      81  45  28 E3        30.42F
LEADVILLE      FAIR      72  35  25 NW12G29   30.60F
MONARCH PASS   PTSUNNY   59  37  44 MISG      30.90S
SALIDA         CLOUDY    83  46  27 S8G16     30.46F
SUNLIGHT       FAIR      64  48  55 CALM      30.73F
WILKERSON PASS FAIR      64  39  39 SW5       30.76S
$$

COZ069>075-222100-
...SAN LUIS VALLEY/SANGRE DE CRISTO MOUNTAINS...

CITY           SKY/WX    TMP DP  RH WIND       PRES   REMARKS
ALAMOSA        FAIR      85  45  24 SE8       30.41F
LA VETA PASS   FAIR      79  36  21 SW8       30.63F
SAGUACHE       LGT RAIN  72  46  40 N9        30.48S
$$

COZ035-036-038>040-222100-
...NORTHERN COLORADO FRONT RANGE...

CITY           SKY/WX    TMP DP  RH WIND       PRES   REMARKS
DENVER INTL AP FAIR      94  45  18 W7        30.19F
DMNS CITY PARK   N/A     89  44  20 W7        30.18F
AURORA         MOSUNNY   92  47  20 N5        30.22F
FRONT RANGE AP PTSUNNY   95  45  17 W6G20     30.20F
ERIE MUNI ARPT FAIR      91  42  18 CALM      30.17F
BOULDER MUN AP FAIR      95  45  17 SE10      30.18F
CENTENNIAL     FAIR      92  41  17 SE10      30.22F
BROOMFIELD     PTSUNNY   84  48  28 NW10      30.23F
LONGMONT       FAIR      98  46  16 SW6       30.17F
$$

COZ041-046-047-076>085-087-088-222100-
...PIKES PEAK/PALMER DIVIDE AND SOUTHERN FOOTHILLS...

CITY           SKY/WX    TMP DP  RH WIND       PRES   REMARKS
COLO. SPRINGS  FAIR      93  44  18 CALM      30.26F
A. F. ACADEMY  MOSUNNY   88  47  23 NE9       30.28F
SCHRIEVER AFB  NOT AVBL
ELLICOTT       FAIR       1  32 100 VRB3      30.25F
FALCON         FAIR      89  42  19 E9        30.34F
FORT CARSON    FAIR      91  44  19 VRB5      30.21F
LIMON          FAIR      93  45  19 S6G17     30.20F
MONUMENT HILL  FAIR      81  46  30 S7        30.35F
TRINIDAD       NOT AVBL
$$

COZ042>045-048>051-090-091-222100-
...NORTHEAST COLORADO...

CITY           SKY/WX    TMP DP  RH WIND       PRES   REMARKS
GREELEY ARPT   FAIR      97  52  21 SE8       30.14F
AKRON          FAIR      93  56  28 CALM      30.15F
BURLINGTON     FAIR      96  50  20 S6        30.12F
WRAY           NOT AVBL
STERLING       FAIR      97  61  30 S8        30.08F
HOLYOKE        FAIR      97  68  38 W3        30.09F
FORT MORGAN    FAIR      96  46  18 SE8       30.14F
$$

COZ086-089-092>099-222100-
...SOUTHEAST COLORADO...

CITY           SKY/WX    TMP DP  RH WIND       PRES   REMARKS
PUEBLO         FAIR      99  45  15 E6        30.12F
LA JUNTA       FAIR     101  50  18 SE12      30.09F
LAMAR          FAIR     101  56  22 VRB5      30.05F
SPRINGFIELD      N/A     99  50  19 VRB7G18   30.10F
$$




USA.gov is the U.S. government's official web portal to all federal, state and local government web resources and services.